Location: Hains Lake
(37.8540°N, 99.8578°W)
Time: 18:21:37
(UTC+00:00)

Cosmos 1733 Rocket - Pass Details

Date: 11 December 2019
Orbit: 604 x 627 km, 82.5° (Epoch: 25 January)

Event Time Altitude Azimuth Distance (km) Brightness Sun altitude
Rises 12:44:11 0° 190° (S) 2,844 6.6 -11.7°
Reaches altitude 10° 12:46:23 10° 192° (SSW) 1,944 5.7 -11.3°
Maximum altitude 12:50:41 74° 278° (W) 633 2.9 -10.5°
Drops below altitude 10° 12:55:00 10° 3° (N) 1,960 5.4 -9.7°
Sets 12:57:14 0° 6° (N) 2,869 6.3 -9.3°
